Location: Old Broadwell Mill Observatory
(33.8015°N, 85.8137°W)
Time: 19:26:07
(UTC-05:00)

Amateur Radio Satellites - All Passes

Search period start: 27 August 2016 18:56
Search period end: 28 August 2016 18:56
Location: Old Broadwell Mill Observatory, 33.8015°N, 85.8137°W

Satellite Date Start Highest point End Downlink Frequencies (MHz)
Time Altitude Azimuth
Cosmos 2491 27 Aug 19:08:58 19:17:22 52° 281° (W) 19:25:51 435.465 / 435.565
CANX-2 27 Aug 19:09:41 19:13:03 24° 71° (ENE) 19:16:26 2200.000
GOMX 1 27 Aug 19:10:43 19:15:01 29° 265° (W) 19:19:34 467.674
Cubesat XI-IV 27 Aug 19:12:49 19:17:22 28° 263° (W) 19:21:57 437.490
CUTE 1.7 + AOD 2 27 Aug 19:15:47 19:19:11 24° 71° (ENE) 19:22:34 437.475
DOVE 4 27 Aug 19:16:57 19:21:56 56° 261° (W) 19:27:08 437.250
CUTE-I 27 Aug 19:25:23 19:29:22 21° 265° (W) 19:33:23 437.470
NOAA 15 27 Aug 19:28:05 19:31:03 15° 267° (W) 19:34:00 137.62
COMPASS 1 27 Aug 19:28:44 19:31:12 16° 69° (ENE) 19:33:41 437.405
YUBILEINY 27 Aug 19:35:21 19:41:13 20° 279° (W) 19:47:05 435.215
BEESAT 2 27 Aug 19:36:03 19:40:04 85° 241° (WSW) 19:44:03 435.950
Cosmos 2504 27 Aug 19:50:17 19:56:53 40° 271° (W) 20:03:27 435.465 / 435.565
HO-68 27 Aug 19:54:28 20:01:40 86° 75° (ENE) 20:08:54 435.675
BEESAT 3 27 Aug 19:55:02 19:58:11 23° 249° (WSW) 20:01:18 437.485
CINEMA 3 27 Aug 19:58:12 20:03:12 74° 259° (W) 20:08:13 145.822/145.860
Oscar 11 27 Aug 20:03:33 20:05:16 12° 67° (ENE) 20:06:59 145.826/435.025
STRAND 1 27 Aug 20:04:26 20:09:34 88° 102° (ESE) 20:14:41 437.568
FUNcube-1 27 Aug 20:10:14 20:12:37 14° 68° (ENE) 20:14:58 145.935
UWE-3 27 Aug 20:15:17 20:19:15 29° 72° (ENE) 20:23:09 435.000/436.395/437.385
CUBEBUG 2 27 Aug 20:16:57 20:21:28 48° 74° (ENE) 20:25:54 437.445
SEEDS 27 Aug 20:23:01 20:27:09 70° 260° (W) 20:31:18 437.485
AIST 1 27 Aug 20:27:15 20:31:37 59° 82° (E) 20:35:55
ZACube-1 27 Aug 20:30:10 20:33:55 26° 71° (ENE) 20:37:35 437.345
CANX-2 27 Aug 20:45:33 20:48:48 22° 264° (W) 20:52:04 2200.000
CUTE 1.7 + AOD 2 27 Aug 20:51:41 20:54:55 21° 265° (W) 20:58:09 437.475
AAUSAT CUBESAT 2 27 Aug 20:54:19 20:58:20 55° 260° (W) 21:02:22 437.432
DELFI C3 27 Aug 20:59:15 21:02:08 20° 70° (ENE) 21:05:02 145.870
COMPASS 1 27 Aug 21:02:45 21:06:27 33° 262° (W) 21:10:11 437.405
HUMSAT D 27 Aug 21:17:38 21:20:15 16° 69° (ENE) 21:22:51 437.325/437.525
PCSat 27 Aug 21:24:02 21:29:28 73° 63° (ENE) 21:34:50 145.827
M-CUBED/EXP-1 PRIME 27 Aug 21:31:51 21:33:35 12° 60° (ENE) 21:35:18 437.505
Oscar 11 27 Aug 21:36:47 21:40:56 47° 261° (W) 21:45:06 145.826/435.025
PRISM 27 Aug 21:40:37 21:44:47 71° 285° (WNW) 21:48:56 437.425
FUNcube-1 27 Aug 21:44:13 21:48:28 42° 261° (W) 21:52:39 145.935
HO-68 27 Aug 21:46:48 21:50:03 13° 268° (W) 21:53:18 435.675
AIST 2 27 Aug 21:47:24 21:51:36 85° 241° (WSW) 21:55:46 435.215
UWE-3 27 Aug 21:52:09 21:55:39 21° 265° (W) 21:59:07 435.000/436.395/437.385
GONETS M04 27 Aug 21:53:18 21:59:22 20° 69° (ENE) 22:05:21
CUBEBUG 2 27 Aug 21:55:53 21:58:14 14° 267° (W) 22:00:34 437.445
TIGRISAT 27 Aug 22:03:17 22:05:44 15° 94° (E) 22:08:09 435.000
ZACube-1 27 Aug 22:06:35 22:10:06 22° 264° (W) 22:13:35 437.345
UNISAT 6 27 Aug 22:30:41 22:34:36 35° 98° (E) 22:38:30 437.425
DELFI C3 27 Aug 22:33:42 22:36:49 22° 264° (W) 22:39:57 145.870
CUSAT 1 27 Aug 22:40:41 22:41:45 12° 86° (E) 22:42:53 437.405
HUMSAT D 27 Aug 22:51:51 22:55:35 32° 262° (W) 22:59:19 437.325/437.525
VELOX 1 27 Aug 22:53:47 22:56:44 18° 68° (ENE) 22:59:43 145.980
Cosmos 2499 27 Aug 22:54:14 23:00:34 34° 77° (ENE) 23:06:58 435.465 / 435.565
CUBEBUG 1 27 Aug 22:55:06 22:58:29 22° 70° (ENE) 23:01:54 437.445
SO-50 27 Aug 22:55:37 23:00:10 41° 113° (ESE) 23:04:42 436.795
O/OREOS (USA 219) 27 Aug 22:56:00 22:58:34 15° 60° (ENE) 23:01:07 437.305
AUBIESAT-1 27 Aug 22:57:06 23:01:42 84° 72° (ENE) 23:06:22 437.475
M-CUBED/EXP-1 PRIME 27 Aug 23:02:51 23:07:26 69° 254° (WSW) 23:12:10 437.505
ANTELSAT 27 Aug 23:07:23 23:11:40 80° 282° (WNW) 23:15:53 437.575/2403.000
PCSat 27 Aug 23:10:27 23:12:08 11° 258° (WSW) 23:13:50 145.827
DX 1 27 Aug 23:10:41 23:13:40 18° 68° (ENE) 23:16:40 434.975-435.025
SPROUT 27 Aug 23:13:32 23:15:42 14° 67° (ENE) 23:17:54 437.525
POPSAT HIP 1 27 Aug 23:14:32 23:16:31 13° 93° (E) 23:18:28 437.405
50 SAT 27 Aug 23:21:33 23:24:44 31° 73° (ENE) 23:27:56 437.505
ESTCUBE 1 27 Aug 23:33:18 23:37:46 80° 259° (W) 23:42:16 437.505/2401.250
DANDE 27 Aug 23:38:00 23:39:35 15° 92° (E) 23:41:12 436.750
TIGRISAT 27 Aug 23:38:38 23:42:31 35° 288° (WNW) 23:46:22 435.000
DUCHIFAT 1 27 Aug 23:40:49 23:44:16 25° 97° (E) 23:47:40 145.980
AISAT 27 Aug 23:41:05 23:45:28 68° 75° (ENE) 23:49:56 437.250
QB50P2 27 Aug 23:43:22 23:47:11 33° 98° (E) 23:50:59 145.880/145.840
POLYITAN 1 27 Aug 23:45:53 23:49:42 33° 98° (E) 23:53:30 437.675
GONETS M04 27 Aug 23:48:08 23:56:59 75° 266° (W) 00:05:45
UKube-1 27 Aug 23:49:42 23:53:43 39° 73° (ENE) 23:57:46 .
NANOSAT C BR1 27 Aug 23:54:17 23:58:14 39° 99° (E) 00:02:09 145.865
UNISAT 6 28 Aug 00:08:27 00:11:00 16° 292° (WNW) 00:13:33 437.425
JAS-2 28 Aug 00:14:51 00:21:28 42° 99° (E) 00:28:38 435.910
CUSAT 1 28 Aug 00:21:54 00:23:31 14° 290° (WNW) 00:25:16 437.405
VELOX 1 28 Aug 00:28:52 00:32:54 34° 262° (W) 00:36:58 145.980
RS-15 28 Aug 00:30:05 00:40:46 49° 108° (ESE) 00:51:59 29.354- 29.394
CUBEBUG 1 28 Aug 00:30:55 00:34:36 26° 263° (W) 00:38:19 437.445
O/OREOS (USA 219) 28 Aug 00:33:47 00:38:12 47° 255° (WSW) 00:42:35 437.305
BUGSAT 1 28 Aug 00:35:00 00:38:58 44° 99° (E) 00:42:50 437.445
SO-50 28 Aug 00:37:04 00:40:46 21° 309° (NW) 00:44:27 436.795
QB50P1 28 Aug 00:38:20 00:42:25 51° 285° (WNW) 00:46:29 145.935-145.965
DX 1 28 Aug 00:45:40 00:49:34 32° 262° (W) 00:53:30 434.975-435.025
SPROUT 28 Aug 00:47:09 00:51:14 42° 261° (W) 00:55:21 437.525
Cosmos 2499 28 Aug 00:47:23 00:53:29 33° 272° (W) 00:59:43 435.465 / 435.565
POPSAT HIP 1 28 Aug 00:48:30 00:52:26 39° 287° (WNW) 00:56:20 437.405
50 SAT 28 Aug 00:57:17 00:58:23 11° 266° (W) 00:59:29 437.505
TISAT 1 28 Aug 01:05:20 01:09:29 58° 75° (ENE) 01:13:41 437.305
DUCHIFAT 1 28 Aug 01:16:37 01:19:47 21° 290° (WNW) 01:22:56 145.980
PHONESAT 2.4 28 Aug 01:17:17 01:20:15 65° 152° (SSE) 01:23:13 2401.200-2431.200
QB50P2 28 Aug 01:20:03 01:22:42 16° 292° (WNW) 01:25:19 145.880/145.840
POLYITAN 1 28 Aug 01:22:37 01:25:12 16° 292° (WNW) 01:27:47 437.675
UKube-1 28 Aug 01:27:36 01:29:53 14° 266° (W) 01:32:10 .
NANOSAT C BR1 28 Aug 01:31:27 01:33:35 14° 293° (WNW) 01:35:42 145.865
Gurwin Techsat 1B 28 Aug 01:41:41 01:45:11 18° 94° (E) 01:48:41 435.225
ITUPSAT 1 28 Aug 01:47:22 01:51:28 30° 70° (ENE) 01:55:34 437.325
GONETS M04 28 Aug 01:50:40 01:52:10 10° 284° (WNW) 01:53:39
JAS-2 28 Aug 02:00:11 02:06:16 34° 291° (WNW) 02:12:51 435.910
Oscar 19 28 Aug 02:07:27 02:12:40 78° 102° (ESE) 02:17:51 437.125/150
BUGSAT 1 28 Aug 02:12:24 02:13:52 12° 294° (WNW) 02:15:20 437.445
SWISSCUBE 28 Aug 02:19:33 02:24:17 79° 77° (ENE) 02:29:03 437.505
BEESAT 28 Aug 02:36:39 02:41:24 76° 258° (WSW) 02:46:10 436.000
RS-15 28 Aug 02:42:17 02:53:12 46° 309° (NW) 03:04:44 29.354- 29.394
KKS-1 28 Aug 02:43:20 02:44:47 11° 65° (ENE) 02:46:14 437.445
MOZHAYETS 4 28 Aug 02:49:21 02:52:24 18° 68° (ENE) 02:55:26
PHONESAT 2.4 28 Aug 02:54:05 02:56:45 28° 348° (NNW) 02:59:25 2401.200-2431.200
STARS 28 Aug 03:17:42 03:19:48 13° 66° (ENE) 03:21:55 437.465
Gurwin Techsat 1B 28 Aug 03:20:15 03:25:18 46° 288° (WNW) 03:30:22 435.225
ITAMSAT 1 28 Aug 03:22:17 03:27:20 51° 101° (E) 03:32:20 435.822/435.867
ITUPSAT 1 28 Aug 03:25:30 03:29:14 23° 264° (W) 03:33:00 437.325
Oscar 19 28 Aug 03:49:55 03:51:16 11° 297° (WNW) 03:52:37 437.125/150
AO-7 28 Aug 03:58:12 04:06:11 49° 102° (ESE) 04:14:06 29.400- 29.500
CUBESAT XI-V 28 Aug 04:10:30 04:13:18 16° 67° (ENE) 04:16:05 437.345
KKS-1 28 Aug 04:16:24 04:20:48 57° 259° (W) 04:25:14 437.445
MOZHAYETS 4 28 Aug 04:25:04 04:29:16 36° 262° (W) 04:33:27
PHONESAT 2.4 28 Aug 04:31:10 04:33:37 22° 4° (N) 04:36:03 2401.200-2431.200
AO-85 28 Aug 04:33:40 04:38:39 40° 113° (ESE) 04:43:28 145.980
YUBILEINY 28 Aug 04:41:13 04:45:18 14° 78° (ENE) 04:49:23 435.215
STARS 28 Aug 04:51:26 04:55:42 47° 260° (W) 05:00:00 437.465
ITAMSAT 1 28 Aug 05:03:10 05:06:20 17° 295° (WNW) 05:09:29 435.822/435.867
RS-15 28 Aug 05:03:44 05:10:06 15° 340° (NNW) 05:16:34 29.354- 29.394
Cosmos 2491 28 Aug 05:23:43 05:32:32 67° 82° (E) 05:41:18 435.465 / 435.565
HORYU 2 28 Aug 05:33:33 05:37:54 56° 101° (E) 05:42:13 437.375
GOMX 1 28 Aug 05:40:59 05:42:41 11° 89° (E) 05:44:21 467.674
CUBESAT XI-V 28 Aug 05:45:58 05:50:17 41° 262° (W) 05:54:39 437.345
AO-7 28 Aug 05:51:29 05:58:35 33° 298° (WNW) 06:05:40 29.400- 29.500
Cubesat XI-IV 28 Aug 05:54:53 05:58:04 16° 93° (E) 06:01:13 437.490
BRITE-PL 28 Aug 06:03:51 06:09:26 52° 99° (E) 06:14:46 437.365/2234.400
NOAA 15 28 Aug 06:05:26 06:09:57 28° 97° (E) 06:14:24 137.62
CUTE-I 28 Aug 06:05:56 06:09:54 21° 95° (E) 06:13:52 437.470
PHONESAT 2.4 28 Aug 06:07:24 06:10:20 52° 21° (NNE) 06:13:15 2401.200-2431.200
AO-85 28 Aug 06:14:55 06:19:13 25° 307° (NW) 06:23:22 145.980
Cosmos 2504 28 Aug 06:30:26 06:37:31 30° 87° (E) 06:44:14 435.465 / 435.565
YUBILEINY 28 Aug 06:31:54 06:40:45 89° 90° (E) 06:49:38 435.215
NOAA 18 28 Aug 06:48:47 06:54:06 50° 101° (E) 06:59:20 137.9125
HORYU 2 28 Aug 07:12:39 07:13:55 11° 295° (WNW) 07:15:10 437.375
GOMX 1 28 Aug 07:15:54 07:21:15 68° 284° (WNW) 07:26:17 467.674
STRAND 1 28 Aug 07:16:17 07:21:24 84° 75° (ENE) 07:26:31 437.568
LilacSat-2 28 Aug 07:16:28 07:20:07 49° 285° (WNW) 07:23:45 437.200
DOVE 4 28 Aug 07:20:19 07:25:14 57° 100° (E) 07:29:49 437.250
Cosmos 2491 28 Aug 07:22:18 07:28:29 22° 278° (W) 07:34:40 435.465 / 435.565
RS-15 28 Aug 07:24:16 07:30:29 15° 19° (NNE) 07:36:43 29.354- 29.394
ISS 28 Aug 07:25:01 07:27:50 27° 130° (SE) 07:30:39 145.825
HO-68 28 Aug 07:28:09 07:33:05 20° 94° (E) 07:37:59 435.675
SO-50 28 Aug 07:32:12 07:34:36 14° 47° (NE) 07:36:59 436.795
Cubesat XI-IV 28 Aug 07:33:13 07:38:22 51° 287° (WNW) 07:43:29 437.490
BRITE-PL 28 Aug 07:43:29 07:47:21 19° 294° (WNW) 07:51:10 437.365/2234.400
PHONESAT 2.4 28 Aug 07:44:08 07:46:31 22° 215° (SW) 07:48:53 2401.200-2431.200
NOAA 15 28 Aug 07:45:02 07:49:37 30° 291° (WNW) 07:54:12 137.62
CUTE-I 28 Aug 07:45:07 07:50:01 39° 289° (WNW) 07:54:54 437.470
CINEMA 3 28 Aug 07:57:45 08:01:48 34° 97° (E) 08:05:41 145.822/145.860
SEEDS 28 Aug 08:11:10 08:14:37 24° 96° (E) 08:18:05 437.485
CUBEBUG 2 28 Aug 08:14:05 08:15:35 12° 92° (E) 08:17:05 437.445
Cosmos 2504 28 Aug 08:22:24 08:30:32 48° 281° (W) 08:38:12 435.465 / 435.565
PRISM 28 Aug 08:26:00 08:29:53 45° 74° (ENE) 08:33:49 437.425
NOAA 18 28 Aug 08:30:40 08:34:17 18° 295° (WNW) 08:37:55 137.9125
CANX-2 28 Aug 08:33:09 08:37:25 83° 104° (ESE) 08:41:40 2200.000
YUBILEINY 28 Aug 08:33:47 08:38:39 16° 293° (WNW) 08:43:33 435.215
CUTE 1.7 + AOD 2 28 Aug 08:39:09 08:43:24 84° 100° (E) 08:47:39 437.475
AAUSAT CUBESAT 2 28 Aug 08:40:35 08:44:13 28° 97° (E) 08:47:50 437.432
COMPASS 1 28 Aug 08:48:51 08:52:55 48° 100° (E) 08:56:58 437.405
AIST 1 28 Aug 08:52:19 08:56:23 41° 92° (E) 09:00:31
DOVE 4 28 Aug 08:59:59 09:02:15 13° 296° (WNW) 09:04:29 437.250
ISS 28 Aug 09:01:34 09:04:16 23° 325° (NW) 09:06:59 145.825
SO-50 28 Aug 09:10:59 09:15:28 59° 244° (WSW) 09:19:50 436.795
CUSAT 1 28 Aug 09:13:05 09:18:07 21° 74° (ENE) 09:23:39 437.405
HO-68 28 Aug 09:14:07 09:21:11 64° 289° (WNW) 09:28:13 435.675
BEESAT 2 28 Aug 09:24:10 09:27:53 41° 114° (ESE) 09:31:38 435.950
UNISAT 6 28 Aug 09:25:59 09:29:28 22° 70° (ENE) 09:32:55 437.425
Oscar 11 28 Aug 09:27:46 09:31:49 39° 99° (E) 09:35:51 145.826/435.025
CINEMA 3 28 Aug 09:35:46 09:38:36 17° 292° (WNW) 09:41:22 145.822/145.860
FUNcube-1 28 Aug 09:36:02 09:40:00 44° 99° (E) 09:43:57 145.935
RS-15 28 Aug 09:36:07 09:47:44 43° 50° (NE) 09:59:04 29.354- 29.394
BEESAT 3 28 Aug 09:40:59 09:44:47 52° 301° (WNW) 09:48:38 437.485
UWE-3 28 Aug 09:44:35 09:48:45 76° 284° (WNW) 09:52:52 435.000/436.395/437.385
SEEDS 28 Aug 09:46:57 09:50:09 22° 290° (WNW) 09:53:22 437.485
CUBEBUG 2 28 Aug 09:48:27 09:52:25 42° 286° (WNW) 09:56:19 437.445
JUGNU 28 Aug 09:54:09 09:57:01 14° 166° (SSE) 09:59:53 437.505
ZACube-1 28 Aug 09:57:44 10:01:54 86° 282° (WNW) 10:06:01 437.345
ANTELSAT 28 Aug 10:01:45 10:06:16 54° 75° (ENE) 10:10:42 437.575/2403.000
PRISM 28 Aug 10:04:27 10:05:23 11° 267° (W) 10:06:21 437.425
DELFI C3 28 Aug 10:13:59 10:17:57 56° 100° (E) 10:21:53 145.870
DANDE 28 Aug 10:14:51 10:19:37 25° 78° (ENE) 10:25:18 436.750
AAUSAT CUBESAT 2 28 Aug 10:16:35 10:19:27 18° 290° (WNW) 10:22:19 437.432
PCSat 28 Aug 10:20:51 10:24:03 16° 104° (ESE) 10:27:15 145.827
COMPASS 1 28 Aug 10:26:39 10:28:00 11° 293° (WNW) 10:29:21 437.405
DUCHIFAT 1 28 Aug 10:30:41 10:32:17 12° 67° (ENE) 10:33:54 145.980
AIST 1 28 Aug 10:32:15 10:34:11 13° 287° (WNW) 10:36:07
TIGRISAT 28 Aug 10:32:24 10:37:00 70° 258° (WSW) 10:41:33 435.000
QB50P2 28 Aug 10:33:11 10:35:49 16° 68° (ENE) 10:38:28 145.880/145.840
POLYITAN 1 28 Aug 10:35:39 10:38:20 16° 68° (ENE) 10:41:01 437.675
HUMSAT D 28 Aug 10:38:32 10:42:30 49° 100° (E) 10:46:28 437.325/437.525
NANOSAT C BR1 28 Aug 10:43:19 10:46:17 19° 69° (ENE) 10:49:15 145.865
GONETS M04 28 Aug 10:49:39 10:56:23 26° 83° (E) 11:03:08
M-CUBED/EXP-1 PRIME 28 Aug 10:49:43 10:50:15 10° 95° (E) 10:50:46 437.505
CUSAT 1 28 Aug 10:53:31 11:00:17 66° 265° (W) 11:08:06 437.405
UNISAT 6 28 Aug 11:01:56 11:05:58 30° 263° (W) 11:09:59 437.425
BEESAT 2 28 Aug 11:03:42 11:05:54 14° 310° (NW) 11:08:06 435.950
Oscar 11 28 Aug 11:05:11 11:07:35 15° 292° (WNW) 11:09:57 145.826/435.025
FUNcube-1 28 Aug 11:14:22 11:15:49 12° 293° (WNW) 11:17:16 145.935
BUGSAT 1 28 Aug 11:21:25 11:24:30 20° 69° (ENE) 11:27:35 437.445
Cosmos 2499 28 Aug 11:25:42 11:32:54 34° 88° (E) 11:39:38 435.465 / 435.565
QB50P1 28 Aug 11:26:18 11:30:33 67° 76° (ENE) 11:34:47 145.935-145.965
ESTCUBE 1 28 Aug 11:30:02 11:33:57 28° 97° (E) 11:37:52 437.505/2401.250
SRMSAT 28 Aug 11:34:49 11:35:12 10° 163° (SSE) 11:35:35 437.500
AISAT 28 Aug 11:36:16 11:39:14 17° 95° (E) 11:42:10 437.250
POPSAT HIP 1 28 Aug 11:36:20 11:40:37 87° 77° (ENE) 11:44:55 437.405
AIST 2 28 Aug 11:41:05 11:45:01 50° 115° (ESE) 11:49:01 435.215
JUGNU 28 Aug 11:41:07 11:45:21 20° 176° (S) 11:49:34 437.505
ANTELSAT 28 Aug 11:41:44 11:43:11 11° 267° (W) 11:44:38 437.575/2403.000
RS-15 28 Aug 11:48:40 12:00:30 56° 250° (WSW) 12:12:03 29.354- 29.394
DANDE 28 Aug 11:56:40 12:02:17 47° 265° (W) 12:09:20 436.750
PCSat 28 Aug 12:01:37 12:06:54 55° 298° (WNW) 12:12:14 145.827
DUCHIFAT 1 28 Aug 12:03:24 12:07:31 48° 260° (W) 12:11:38 145.980
QB50P2 28 Aug 12:07:23 12:11:18 35° 262° (W) 12:15:14 145.880/145.840
JAS-2 28 Aug 12:08:42 12:13:51 78° 75° (ENE) 12:19:17 435.910
POLYITAN 1 28 Aug 12:09:55 12:13:49 34° 262° (W) 12:17:45 437.675
AUBIESAT-1 28 Aug 12:14:48 12:18:44 66° 289° (WNW) 12:22:21 437.475
HUMSAT D 28 Aug 12:16:50 12:17:39 10° 293° (WNW) 12:18:27 437.325/437.525
NANOSAT C BR1 28 Aug 12:18:02 12:21:46 29° 263° (W) 12:25:31 145.865
M-CUBED/EXP-1 PRIME 28 Aug 12:21:16 12:25:06 42° 291° (WNW) 12:28:37 437.505
VELOX 1 28 Aug 12:22:20 12:26:45 58° 101° (E) 12:31:07 145.980
CUBEBUG 1 28 Aug 12:22:29 12:26:55 76° 102° (ESE) 12:31:18 437.445
50 SAT 28 Aug 12:26:23 12:30:02 73° 102° (ESE) 12:33:40 437.505
SPROUT 28 Aug 12:36:50 12:40:53 41° 99° (E) 12:44:53 437.525
DX 1 28 Aug 12:37:08 12:41:28 56° 101° (E) 12:45:45 434.975-435.025
GONETS M04 28 Aug 12:43:58 12:52:30 58° 280° (W) 13:01:10
TISAT 1 28 Aug 12:55:19 12:56:50 12° 93° (E) 12:58:21 437.305
BUGSAT 1 28 Aug 12:56:00 12:59:39 28° 263° (W) 13:03:19 437.445
Gurwin Techsat 1B 28 Aug 12:59:06 13:02:54 20° 67° (ENE) 13:06:42 435.225
O/OREOS (USA 219) 28 Aug 13:03:15 13:07:10 31° 103° (ESE) 13:11:08 437.305
ESTCUBE 1 28 Aug 13:07:05 13:10:33 22° 291° (WNW) 13:14:02 437.505/2401.250
AISAT 28 Aug 13:11:43 13:15:45 34° 288° (WNW) 13:19:44 437.250
AO-85 28 Aug 13:12:10 13:13:00 10° 45° (NE) 13:13:49 145.980
UKube-1 28 Aug 13:16:11 13:20:28 63° 285° (WNW) 13:24:44 .
Cosmos 2499 28 Aug 13:18:12 13:25:48 40° 282° (WNW) 13:32:55 435.465 / 435.565
SRMSAT 28 Aug 13:19:45 13:23:39 18° 172° (S) 13:27:33 437.500
Oscar 19 28 Aug 13:20:14 13:25:22 75° 75° (ENE) 13:30:33 437.125/150
AIST 2 28 Aug 13:21:46 13:23:47 13° 311° (NW) 13:25:48 435.215
JUGNU 28 Aug 13:29:38 13:33:43 19° 186° (S) 13:37:47 437.505
VELOX 1 28 Aug 14:01:29 14:02:39 11° 295° (WNW) 14:03:48 145.980
SPROUT 28 Aug 14:14:15 14:16:25 14° 293° (WNW) 14:18:33 437.525
DX 1 28 Aug 14:15:57 14:17:06 11° 295° (WNW) 14:18:16 434.975-435.025
SWISSCUBE 28 Aug 14:24:06 14:28:08 27° 97° (E) 14:32:08 437.505
TISAT 1 28 Aug 14:28:40 14:32:40 43° 286° (WNW) 14:36:36 437.305
ITAMSAT 1 28 Aug 14:36:20 14:41:21 53° 73° (ENE) 14:46:23 435.822/435.867
Gurwin Techsat 1B 28 Aug 14:37:28 14:42:29 42° 261° (W) 14:47:31 435.225
BEESAT 28 Aug 14:40:50 14:45:14 36° 98° (E) 14:49:37 436.000
O/OREOS (USA 219) 28 Aug 14:43:16 14:46:35 20° 298° (WNW) 14:49:55 437.305
AO-85 28 Aug 14:49:51 14:53:57 65° 244° (WSW) 14:57:48 145.980
AO-7 28 Aug 14:52:45 15:00:38 48° 66° (ENE) 15:08:31 29.400- 29.500
SRMSAT 28 Aug 15:07:55 15:12:09 20° 182° (S) 15:16:23 437.500
JUGNU 28 Aug 15:20:03 15:22:01 12° 196° (SSW) 15:23:58 437.505
ITUPSAT 1 28 Aug 15:28:37 15:33:21 66° 285° (WNW) 15:38:04 437.325
ISS 28 Aug 15:31:40 15:34:56 63° 41° (NE) 15:38:10 145.825
SWISSCUBE 28 Aug 16:01:53 16:05:47 26° 291° (WNW) 16:09:40 437.505
KKS-1 28 Aug 16:11:22 16:15:28 35° 98° (E) 16:19:32 437.445
ITAMSAT 1 28 Aug 16:18:11 16:21:04 15° 267° (W) 16:23:56 435.822/435.867
BEESAT 28 Aug 16:19:23 16:22:43 19° 292° (WNW) 16:26:02 436.000
MOZHAYETS 4 28 Aug 16:23:22 16:27:57 70° 102° (ESE) 16:32:31
HORYU 2 28 Aug 16:27:49 16:31:46 32° 71° (ENE) 16:35:44 437.375
Cosmos 2491 28 Aug 16:29:13 16:32:46 13° 78° (ENE) 16:36:19 435.465 / 435.565
STARS 28 Aug 16:44:40 16:48:48 40° 99° (E) 16:52:54 437.465
AO-7 28 Aug 16:46:11 16:53:28 33° 261° (W) 17:00:47 29.400- 29.500
YUBILEINY 28 Aug 16:47:39 16:55:35 37° 76° (ENE) 17:03:23 435.215
SRMSAT 28 Aug 16:57:24 17:00:38 15° 192° (SSW) 17:03:51 437.500
BRITE-PL 28 Aug 17:10:43 17:15:05 36° 71° (ENE) 17:19:47 437.365/2234.400
Cubesat XI-IV 28 Aug 17:13:07 17:16:48 19° 66° (ENE) 17:20:29 437.490
NOAA 15 28 Aug 17:21:46 17:26:17 30° 69° (ENE) 17:30:49 137.62
CUTE-I 28 Aug 17:24:00 17:28:15 25° 68° (ENE) 17:32:30 437.470
CUBESAT XI-V 28 Aug 17:45:56 17:50:37 66° 101° (E) 17:55:17 437.345
KKS-1 28 Aug 17:48:50 17:51:43 17° 292° (WNW) 17:54:36 437.445
LilacSat-2 28 Aug 17:54:18 17:57:55 40° 75° (ENE) 18:01:32 437.200
BEESAT 3 28 Aug 18:02:02 18:05:19 24° 55° (NE) 18:08:33 437.485
HORYU 2 28 Aug 18:05:12 18:08:20 19° 265° (W) 18:11:28 437.375
NOAA 18 28 Aug 18:11:02 18:16:31 66° 74° (ENE) 18:22:00 137.9125
GOMX 1 28 Aug 18:19:01 18:24:02 83° 77° (ENE) 18:29:23 467.674
Cosmos 2491 28 Aug 18:19:29 18:28:12 86° 95° (E) 18:36:59 435.465 / 435.565
Cosmos 2504 28 Aug 18:19:39 18:26:33 48° 79° (E) 18:33:25 435.465 / 435.565
DOVE 4 28 Aug 18:20:56 18:25:40 39° 72° (ENE) 18:30:33 437.250
STARS 28 Aug 18:22:17 18:24:47 15° 293° (WNW) 18:27:16 437.465
